Flag for Germany Weather past 2 weeks in Fürth, Bavaria, Germany

30 °F

Ice fog.

Feels Like: 30 °F
Forecast: 26 / 38 °F
Wind: 2 mph from North

Location: Nuernberg

Current Time: Nov 27, 2015 at 1:05:58 PM

Latest Report: Nov 27, 2015 at 12:20 PM

Visibility: 2 mi

Pressure: 30.09 "Hg

Humidity: 100%

Dew point: 30 °F

Location of FürthLocation

Historic Weather in Fürth — Graph


Fürth temperature yesterday

Maximum temperature yesterday: 39 °F (at 10:50 AM)
Minimum temperature yesterday: 32 °F (at 10:20 PM)
Average temperature yesterday: 38 °F

Past Weeks' High & Low Weather Summary

High61 °F (Nov 16, 12:50 PM)100% (Nov 12, 11:50 PM)30.39 "Hg (Nov 12, 11:50 PM)
Low28 °F (Nov 27, 5:50 AM)31% (Nov 16, 1:20 PM)29.42 "Hg (Nov 21, 12:20 PM)
Average43 °F83%29.98 "Hg
* Reported Nov 12 11:20 AM — Nov 27 11:50 AM, Fürth, Weather by CustomWeather, © 2015

Note: Actual official high and low records may vary slightly from our data, if they occured in-between our weather recording intervals... More about our weather records


Fürth weather history for previous 24 hours

Time TempWeatherWind HumidityBarometerVisibility
11:50 AM
Fri, Nov 27
30 °FIce fog.2 mph100%30.09 "Hg1 mi
11:20 AM30 °FIce fog.1 mph100%30.12 "Hg1 mi
10:50 AM30 °FIce fog.1 mph100%30.12 "Hg0 mi
10:20 AM30 °FIce fog.2 mph100%30.12 "Hg0 mi
9:50 AM30 °FIce fog.2 mph100%30.12 "Hg0 mi
9:20 AM30 °FIce fog.2 mph93%30.12 "Hg0 mi
8:50 AM30 °FIce fog.2 mph100%30.15 "Hg0 mi
7:50 AM28 °FIce fog.2 mph100%30.15 "Hg0 mi
7:20 AM28 °FIce fog.2 mph100%30.15 "Hg0 mi
6:50 AM28 °FIce fog.1 mph100%30.12 "Hg0 mi
6:20 AM28 °FIce fog.1 mph100%30.15 "Hg0 mi
5:50 AM28 °FIce fog.1 mph100%30.15 "Hg0 mi
4:50 AM30 °FIce fog.2 mph100%30.15 "Hg0 mi
4:20 AM30 °FIce fog.1 mph100%30.15 "Hg0 mi
3:50 AM30 °FIce fog.2 mph100%30.15 "Hg0 mi
3:20 AM30 °FIce fog.1 mph100%30.15 "Hg0 mi
2:50 AM30 °FIce fog.2 mph100%30.15 "Hg0 mi
2:20 AM30 °FIce fog.1 mph100%30.15 "Hg0 mi
1:50 AM32 °FIce fog.2 mph93%30.15 "Hg0 mi
1:20 AM32 °FIce fog.2 mph100%30.15 "Hg0 mi
12:50 AM32 °FIce fog.2 mph100%30.15 "Hg0 mi
12:20 AM34 °FFog.2 mph93%30.15 "Hg0 mi
11:50 PM
Thu, Nov 26
34 °FFog.1 mph100%30.15 "Hg0 mi
10:20 PM32 °FIce fog.5 mph93%30.15 "Hg0 mi
9:50 PM34 °FFog.2 mph93%30.15 "Hg1 mi
9:20 PM36 °FFog.No wind93%30.12 "Hg5 mi
8:50 PM36 °FFog.2 mph93%30.12 "HgN/A
8:20 PM37 °FFog.1 mph93%30.12 "HgN/A
7:50 PM37 °FFog.1 mph100%30.12 "HgN/A
7:20 PM37 °FPassing clouds.No wind100%30.09 "HgN/A
6:50 PM37 °FPartly cloudy.1 mph100%30.09 "HgN/A
6:20 PM39 °FPartly cloudy.1 mph93%30.09 "HgN/A
5:50 PM39 °FPartly cloudy.2 mph93%30.07 "HgN/A
5:20 PM39 °FPassing clouds.1 mph87%30.07 "HgN/A
4:50 PM39 °FPassing clouds.2 mph93%30.04 "HgN/A
4:20 PM39 °FPartly sunny.2 mph93%30.04 "HgN/A
3:50 PM39 °FPartly sunny.1 mph93%30.01 "HgN/A
3:20 PM39 °FPartly sunny.2 mph93%30.01 "HgN/A
2:50 PM39 °FMore clouds than sun.2 mph93%30.01 "HgN/A
2:20 PM39 °FMore clouds than sun.3 mph93%29.98 "HgN/A
1:50 PM39 °FDrizzle. More clouds than sun.3 mph93%29.98 "HgN/A
1:20 PM39 °FDrizzle. More clouds than sun.2 mph87%29.98 "HgN/A
Weather by CustomWeather, © 2015

See weather overviewHow to use our weather pages